{"data":{"norad_id":65965,"epoch":"2026-09-20T13:39:11.671776Z","epoch_age_seconds":134427,"freshness":"FRESH","line1":"1 65965U 25228U   26263.56888509  .00002116  00000+0  30652-3 0  9996","line2":"2 65965  51.8995 203.8996 0001075  75.9376 284.1706 14.79933023 52294","mean_motion":14.79933023,"eccentricity":0.0001075,"inclination_deg":51.8995,"raan_deg":203.8996,"arg_perigee_deg":75.9376,"mean_anomaly_deg":284.1706,"bstar":0.00030652,"rev_number":5229,"period_min":97.301700659463,"perigee_km":628.78223176986,"apogee_km":630.28888136952,"semimajor_km":7007.6725565697,"source":"CELESTRAK","updated_at":"2026-09-21T09:00:15.683398Z"}}